Arroyo de Medina,

3:02 AM CST on February 26, 2017 (GMT -0600)
Queretaro Airport

Weather History for MMQT - October, 2011

Change the Weather History Date:

Saturday, October 8, 2011

  Actual Average Record
Temperature  
Mean Temperature 70 °F -  
Max Temperature 82 °F 73 °F 83 °F (2015)
Min Temperature 57 °F 51 °F 39 °F (2010)
Cooling Degree Days 4    
Growing Degree Days 20 (Base 50)    
Moisture  
Dew Point 52 °F    
Average Humidity 62    
Maximum Humidity 88    
Minimum Humidity 21    
Precipitation  
Precipitation 0.12 in - - ()
Sea Level Pressure  
Sea Level Pressure 30.08 in    
Wind  
Wind Speed 3 mph ()    
Max Wind Speed 14 mph    
Max Gust Speed -    
Visibility 4.7 miles    
Events Rain    
Averages and records for this station are not official NWS values.
T = Trace of Precipitation, MM = Missing Value Source: Averaged Metar Reports

Daily Weather History Graph

Daily Weather History Graph

Search for Another Location

Airport or City:

Trip Planner

Search our weather history database for the weather conditions in past years. The results will help you decide how hot, cold, wet, or windy it might be!

Date:

Astronomy

Oct. 08, 2011 Rise Set
Actual Time 7:33 AM CDT 7:22 PM CDT
Civil Twilight 7:11 AM CDT 7:44 PM CDT
Nautical Twilight 6:45 AM CDT 8:10 PM CDT
Astronomical Twilight 6:20 AM CDT 8:36 PM CDT
Moon 5:17 PM CDT (10/8) 4:43 AM CDT (10/8)
Length of Visible Light 12h 33m
Length of Day
11h 49m
Waxing Gibbous, 90% of the Moon is Illuminated
Oct 8
Waxing Gibbous
Oct 11
Full
Oct 19
Last Quarter
Oct 26
New
Nov 2
First Quarter

Hourly Weather History & Observations

Time (CDT) Temp. Dew Point Humidity Pressure Visibility Wind Dir Wind Speed Gust Speed Precip Events Conditions
12:40 AM 61 °F 56 °F 77% 29.72 in 6 mi Calm Calm - -   Partly Cloudy
12:45 AM 60.8 °F 50.0 °F 68% 30.28 in 5.0 mi WNW 6.9 mph - N/A   Scattered Clouds
1:45 AM 59.0 °F 46.4 °F 63% 30.26 in 5.0 mi Calm Calm - N/A   Scattered Clouds
2:45 AM 59.0 °F 44.6 °F 59% 30.26 in 5.0 mi Calm Calm - N/A   Scattered Clouds
3:45 AM 59.0 °F 44.6 °F 59% 30.24 in 5.0 mi Calm Calm - N/A   Scattered Clouds
4:45 AM 57.2 °F 48.2 °F 72% 30.22 in 5.0 mi NE 4.6 mph - N/A   Mostly Cloudy
5:45 AM - - N/A% - 5.0 mi Calm Calm - N/A   Mostly Cloudy
6:45 AM 55.4 °F 46.4 °F 72% 30.22 in 5.0 mi Calm Calm - N/A   Mostly Cloudy
6:50 AM 60 °F 54 °F 76% 29.80 in 3 mi North 4.5 mph - -   Partly Cloudy
7:45 AM 59.0 °F 48.2 °F 67% 30.24 in 5.0 mi ENE 4.6 mph - N/A   Overcast
8:45 AM 60.8 °F 50.0 °F 68% 30.26 in 4.0 mi Calm Calm - N/A   Overcast
9:45 AM 62.6 °F 55.4 °F 77% 30.26 in 4.0 mi ESE 9.2 mph - N/A   Overcast
9:50 AM 64 °F 55 °F 64% 29.88 in 3 mi East 8.9 mph - -   Mostly Cloudy
11:45 AM 71.6 °F 51.8 °F 50% 30.28 in 4.0 mi NE 5.8 mph - N/A   Overcast
12:45 PM 73.4 °F 55.4 °F 53% 30.26 in 4.0 mi Calm Calm - N/A   Mostly Cloudy
12:55 PM 77 °F 55 °F 36% 29.82 in 5 mi WSW 2.2 mph - -   Mostly Cloudy
1:45 PM 73.4 °F 55.4 °F 53% 30.22 in 4.0 mi WNW 6.9 mph - N/A   Mostly Cloudy
2:45 PM 77.0 °F 55.4 °F 47% 30.12 in 4.0 mi Calm Calm - N/A   Mostly Cloudy
3:45 PM 78.8 °F 57.2 °F 47% 30.12 in 4.0 mi ENE 11.5 mph - N/A   Mostly Cloudy
3:50 PM 83 °F 50 °F 21% 29.63 in 5 mi SSW 2.2 mph - -   Partly Cloudy
4:45 PM 73.4 °F 55.4 °F 53% 30.09 in 5.0 mi WSW 6.9 mph - N/A   Mostly Cloudy
5:45 PM 73.4 °F 55.4 °F 53% 30.10 in 5.0 mi Calm Calm - N/A   Mostly Cloudy
6:30 PM 73 °F 51 °F 35% 29.58 in 3 mi SE 13.4 mph - -   Mostly Cloudy
6:45 PM 71.6 °F 53.6 °F 53% 30.08 in 5.0 mi Calm Calm - N/A   Mostly Cloudy
7:45 PM 62.6 °F 53.6 °F 72% 30.12 in 5.0 mi South 9.2 mph - N/A Rain Light Rain
8:45 PM 59.0 °F 53.6 °F 82% 30.18 in 5.0 mi East 6.9 mph - N/A   Mostly Cloudy
9:30 PM 63 °F 56 °F 72% 29.64 in 3 mi SE 8.9 mph - -   Overcast
9:45 PM 57.2 °F 50.0 °F 77% 30.18 in 7.0 mi ENE 11.5 mph - N/A   Mostly Cloudy
10:45 PM 60.8 °F 57.2 °F 88% 30.18 in 7.0 mi NE 13.8 mph - N/A   Mostly Cloudy
11:45 PM 59.0 °F 50.0 °F 72% 30.22 in 6.0 mi SSW 5.8 mph - N/A   Mostly Cloudy